Terminal Aerodrome Forecast
Issued by NWS Atlanta, GA

Home | Current Version | Previous Version | Text Only | Print | Product List | Glossary On
Versions: 1 2 3 4 5 6 7 8 9 10 11 12 13 14 15 16 17 18 19 20 21 22 23 24 25 26 27 28 29 30 31 32 33 34 35 36 37
000
FTAK31 PAJN 290415 AAA
TAFAHN
TAF AMD
PAHN 290415Z 2904/2924 08007KT P6SM -SHRA SCT025 OVC040
     FM291400 10010KT P6SM -SHRA BKN030 OVC040
     FM292000 11014KT P6SM -SHRA BKN045 OVC050
      AMD LTD TO CLD VIS AND WIND=

USA.gov is the U.S. government's official web portal to all federal, state and local government web resources and services.